Regional Weather Roundup
Issued by NWS Upton, NY

Home | Current Version | Previous Version | Text Only | Print | Product List | Glossary On
Versions: 1 2 3 4 5 6 7 8 9 10 11 12 13 14 15 16 17 18 19 20 21 22 23 24 25 26 27 28 29 30 31 32 33 34 35 36 37 38 39 40 41 42 43 44 45 46 47 48 49 50
154
ASUS41 KOKX 251708
RWROKX

REGIONAL WEATHER ROUNDUP
NATIONAL WEATHER SERVICE NEW YORK NY
100 PM EDT SUN SEP 25 2016

NOTE: "FAIR" INDICATES FEW OR NO CLOUDS BELOW 12,000 FEET WITH NO
SIGNIFICANT WEATHER AND/OR OBSTRUCTIONS TO VISIBILITY.

NYZ071-072-176-178-NJZ106-104-251800-
NEW YORK CITY METRO AREA

CITY           SKY/WX    TMP DP  RH WIND       PRES   REMARKS
Central Park   SUNNY     66  35  31 VRB5      30.22F
LaGuardia APRT SUNNY     66  35  31 NW9       30.18F
Kennedy INTL   MOSUNNY   67  37  33 N8        30.19F
Newark/Liberty MOSUNNY   67  36  31 VRB5      30.18F
Bronx Bot Gard   N/A     64  32  29 NW3       30.21S
Wall St Helipt SUNNY     70  41  35 SE5       30.19F
Teterboro      SUNNY     67  38  34 CALM      30.17F
$$

NYZ177-179-078>081-251800-
LONG ISLAND NEW YORK

CITY           SKY/WX    TMP DP  RH WIND       PRES   REMARKS
Farmingdale    SUNNY     66  36  32 NW12      30.18F
MacArthur/ISP  SUNNY     65  34  31 NW12G18   30.17F
Shirley        SUNNY     65  38  36 N6        30.17F
Riverhead      NOT AVBL
Westhampton    SUNNY     64  34  32 N13       30.18F
Southampton      N/A     63  39  42 N10       30.13S
Bridgehampton    N/A     64  43  45 NE2       30.02S
East Hampton   FAIR      62  36  38 NW10      30.15S
Montauk          N/A     61  37  41 NW9       30.16F
$$

NYZ052-065-067-251800-
HUDSON VALLEY

CITY           SKY/WX    TMP DP  RH WIND       PRES   REMARKS
White Plains   SUNNY     65  31  28 N12       30.17F
Newburgh       NOT AVBL
Montgomery     SUNNY     65  37  35 VRB3      30.18F
Poughkeepsie   SUNNY     64  32  30 N8G17     30.18F
Albany         MOSUNNY   61  38  42 VRB3      30.20F
$$

NJZ001-105-106-008-010-013-015-019>022-104-251800-
NEW JERSEY

CITY           SKY/WX    TMP DP  RH WIND       PRES   REMARKS
Newark/Liberty MOSUNNY   67  36  31 VRB5      30.18F
Teterboro      SUNNY     67  38  34 CALM      30.17F
Caldwell       SUNNY     66  38  35 VRB7      30.20F
Morristown     SUNNY     66  39  37 N7        30.19F
Somerville     SUNNY     70  31  23 N12       30.17F
Linden         NOT AVBL
Sussex         SUNNY     65  41  41 VRB3      30.19F
Abdover          N/A     65  35  33 MISG      30.20F
Trenton        SUNNY     67  40  37 MISG      30.19F
Millville      SUNNY     69  42  37 VRB5      30.20F
Atlantic City  SUNNY     69  40  34 VRB3      30.19F
Wrightstown    SUNNY     68  41  36 N9        30.16F
Toms River     SUNNY     67  41  38 N7        30.20S
Belmar         SUNNY     66  39  37 NE8       30.19F
$$

PAZ047>061-062-071-251800-
EASTERN PENNSYLVANIA

CITY           SKY/WX    TMP DP  RH WIND       PRES   REMARKS
Philadelphia   MOSUNNY   70  41  34 N7        30.20F
Allentown      SUNNY     67  43  41 CALM      30.20F
Scranton       SUNNY     65  39  38 N10       30.21F
$$

CTZ002-004>006-009-010-012-RIZ004-006-007-MAZ004-011-015-251800-
SOUTHERN NEW ENGLAND
 IN CT

CITY           SKY/WX    TMP DP  RH WIND       PRES   REMARKS
Bradley INTL   SUNNY     64  33  31 N14G23    30.16F
Hartford       SUNNY     66  34  30 NW12      30.15F
Danbury        SUNNY     64  32  30 NW9G18    30.18F
Wtrbury/Oxford SUNNY     61  30  31 N6G17     30.20F
Bridgeport     SUNNY     68  31  25 N12       30.16
Meriden        SUNNY     67  33  28 NW12G18   30.15F
New Haven      SUNNY     66  31  27 N15G24    30.16F
Chester        FAIR      63  34  34 N9        30.15F
Groton         SUNNY     66  37  34 N12G25    30.13F
Wilimantic     SUNNY     64  34  32 N12G17    30.15F

 IN RI

CITY           SKY/WX    TMP DP  RH WIND       PRES   REMARKS
Providence     SUNNY     64  34  32 NW10G18   30.13F
Block Island   SUNNY     61  38  42 NW7G16    30.14F
Westerly       SUNNY     65  35  33 NW9       30.14F
 IN MA

CITY           SKY/WX    TMP DP  RH WIND       PRES   REMARKS
Boston         MOSUNNY   64  34  32 NW15G24   30.11S
Worcester      SUNNY     58  32  37 NW18G25   30.12F
Westfield      SUNNY     64  33  31 NW13G23   30.15F
Provincetown   SUNNY     61  39  44 N14G21    30.11F
Nantucket      SUNNY     61  38  42 NW17G23   30.11S
$$

ANZ330-335-338-340-345-350-353-355-251800-
COASTAL MARINE OBSERVATIONS


STATION/POSITION TIME  SKY/WX   TEMP    WIND        PRES    VSBY  WAVE
                                AIR SEA DIR/SP/G                  HT/PER
                 (UTC)          (F)     (DEG/KT/KT) (MB)    (MI)  (FT/S)
NY HARB ENTRANCE 1650            62 71  360/ 12/ 14 1021.8          3/11
20S FIRE ISLAND  1650            61 70  350/ 12/ 16 1021.5          4/11
GREAT SOUTH BAY  1630            61 71  320/  8/ 14   N/A
23 SSW MONTAUK P 1650            59 67  320/ 12/ 14 1021.4          4/11
15 E BARNEGAT LI 1630               71                N/A           5/11
HUDSON CANYON    1550            62 69              1021.5          5/11
KINGS POINT      1636            62 72              1022.0
EXECUTION ROCKS  1645            63     340/  6/ 10   N/A
CENTRAL LI SOUND 1615            59 73  320/  4/  8   N/A           1
EASTERN LI SOUND NOT AVBL
ROBBINS REEF     1642            62      10/  5/  7 1022.4
$$


>>>>>>>>>>>>>>>>>>>>>>>>>>>> KEY <<<<<<<<<<<<<<<<<<<<<<<<<<<
>                                                          <
>     SKY/WX - Sky Condition/Present Weather               <
>     TMP    - Temperature in Fahrenheit                   <
>     DP     - Dew Point in Fahrenheit                     <
>     RH     - Relative Humidity in Percent                <
>     WIND   - Direction (from) and Speed in MPH           <
>     PRES   - Mean Sea Level Pressure (inches of Hg)      <
>     WCI    - Wind Chill Index                            <
>     VSB    - VISIBILITY IN MILES                         <
>     HX     - HEAT INDEX                                  <
>     TC     - TEMPERATURE IN CELSIUS                      <
>     VRB    - VARIABLE WIND DIRECTION                     <
>                                                          <
>>>>>>>>>>>>>>>>>>>>>>>>>>>> KEY <<<<<<<<<<<<<<<<<<<<<<<<<<<




USA.gov is the U.S. government's official web portal to all federal, state and local government web resources and services.